Weather History for KRIV - March, 2014

Change the Weather History Date:

Wednesday, March 26, 2014

  Actual Average Record
Temperature  
Mean Temperature 56 °F -  
Max Temperature 62 °F 68 °F 88 °F (2015)
Min Temperature 50 °F 44 °F 34 °F (2009)
Degree Days  
Heating Degree Days 10    
Growing Degree Days 6 (Base 50)    
Moisture  
Dew Point 46 °F    
Average Humidity 73    
Maximum Humidity 94    
Minimum Humidity 41    
Precipitation  
Precipitation 0.00 in - - ()
Sea Level Pressure  
Sea Level Pressure 29.93 in    
Wind  
Wind Speed 6 mph (West)    
Max Wind Speed 16 mph    
Max Gust Speed 21 mph    
Visibility 10 miles    
Events Rain    
Averages and records for this station are not official NWS values.
T = Trace of Precipitation, MM = Missing Value Source: NWS Daily Summary

Daily Weather History Graph

Daily Weather History Graph

Search for Another Location

Airport or City:

Trip Planner

Search our weather history database for the weather conditions in past years. The results will help you decide how hot, cold, wet, or windy it might be!

Date:

Astronomy

Mar. 26, 2014 Rise Set
Actual Time 6:44 AM PDT 7:05 PM PDT
Civil Twilight 6:19 AM PDT 7:30 PM PDT
Nautical Twilight 5:50 AM PDT 7:59 PM PDT
Astronomical Twilight 5:20 AM PDT 8:29 PM PDT
Moon 3:44 AM PDT (3/26) 2:59 PM PDT (3/26)
Length of Visible Light 13h 10m
Length of Day
12h 20m
Waning Crescent, 21% of the Moon is Illuminated
Mar 26
Waning Crescent
Mar 30
New
Apr 7
First Quarter
Apr 15
Full
Apr 22
Last Quarter

Hourly Weather History & Observations

Time (PDT) Temp. Dew Point Humidity Pressure Visibility Wind Dir Wind Speed Gust Speed Precip Events Conditions
12:55 AM 52.9 °F 49.5 °F 88% 29.94 in 10.0 mi NW 4.6 mph - N/A   Mostly Cloudy
1:26 AM 51.8 °F 50.0 °F 94% 29.90 in 10.0 mi NNE 3.5 mph - N/A   Mostly Cloudy
1:58 AM 52.9 °F 49.5 °F 88% 29.90 in 10.0 mi Calm Calm - N/A   Mostly Cloudy
2:58 AM 53.2 °F 48.4 °F 84% 29.88 in 10.0 mi SSE 4.6 mph - N/A   Mostly Cloudy
3:44 AM 53.6 °F 48.2 °F 82% 29.89 in 10.0 mi SSE 5.8 mph - N/A   Overcast
3:58 AM 53.2 °F 48.2 °F 83% 29.88 in 10.0 mi SSE 4.6 mph - N/A   Overcast
4:58 AM 52.9 °F 46.6 °F 79% 29.88 in 10.0 mi South 3.5 mph - N/A   Partly Cloudy
5:58 AM 52.7 °F 46.9 °F 81% 29.88 in 10.0 mi SE 5.8 mph - N/A   Mostly Cloudy
6:53 AM 51.8 °F 46.4 °F 82% 29.91 in 10.0 mi West 5.8 mph - N/A   Mostly Cloudy
6:58 AM 52.5 °F 46.6 °F 80% 29.90 in 10.0 mi West 6.9 mph - N/A   Mostly Cloudy
7:18 AM 51.8 °F 48.2 °F 88% 29.92 in 10.0 mi WNW 3.5 mph - N/A   Mostly Cloudy
7:28 AM 51.8 °F 48.2 °F 88% 29.92 in 10.0 mi West 4.6 mph - N/A   Mostly Cloudy
7:29 AM 51.8 °F 48.2 °F 88% 29.92 in 10.0 mi WNW 5.8 mph - N/A   Mostly Cloudy
7:34 AM 51.8 °F 48.2 °F 88% 29.92 in 10.0 mi West 5.8 mph - N/A   Mostly Cloudy
7:39 AM 51.8 °F 48.2 °F 88% 29.92 in 10.0 mi West 3.5 mph - N/A   Mostly Cloudy
7:44 AM 51.8 °F 48.2 °F 88% 29.93 in 10.0 mi West 4.6 mph - N/A   Mostly Cloudy
7:58 AM 51.3 °F 47.8 °F 88% 29.92 in 10.0 mi West 4.6 mph - N/A   Scattered Clouds
8:55 AM 54.9 °F 46.0 °F 72% 29.96 in 10.0 mi Calm Calm - N/A   Mostly Cloudy
9:55 AM 57.0 °F 45.3 °F 65% 29.96 in 10.0 mi West 8.1 mph - N/A   Mostly Cloudy
10:55 AM 57.2 °F 43.7 °F 61% 29.98 in 10.0 mi West 10.4 mph - N/A   Mostly Cloudy
11:49 AM 59.0 °F 46.4 °F 63% 29.96 in 10.0 mi WSW 11.5 mph - N/A Rain Light Rain
11:58 AM 58.5 °F 45.7 °F 62% 29.97 in 10.0 mi West 9.2 mph - 0.00 in   Mostly Cloudy
12:34 PM 59.0 °F 44.6 °F 59% 29.95 in 10.0 mi WSW 11.5 mph 17.3 mph N/A Rain Light Rain
12:44 PM 59.0 °F 46.4 °F 63% 29.95 in 10.0 mi West 9.2 mph - N/A   Mostly Cloudy
12:58 PM 58.3 °F 46.2 °F 64% 29.94 in 10.0 mi WNW 11.5 mph 19.6 mph 0.00 in Rain Light Rain
1:15 PM 57.2 °F 46.4 °F 67% 29.95 in 10.0 mi West 10.4 mph - N/A   Mostly Cloudy
1:22 PM 57.2 °F 46.4 °F 67% 29.94 in 10.0 mi WSW 12.7 mph - N/A Rain Light Rain
1:40 PM 59.0 °F 46.4 °F 63% 29.94 in 10.0 mi West 12.7 mph 18.4 mph N/A   Mostly Cloudy
1:58 PM 58.3 °F 44.1 °F 59% 29.94 in 10.0 mi West 11.5 mph - 0.00 in   Mostly Cloudy
2:58 PM 61.9 °F 42.6 °F 49% 29.92 in 10.0 mi West 16.1 mph - N/A   Scattered Clouds
3:58 PM 61.7 °F 37.6 °F 41% 29.91 in 10.0 mi WSW 15.0 mph 20.7 mph N/A   Mostly Cloudy
4:58 PM 59.4 °F 38.5 °F 46% 29.91 in 10.0 mi WSW 15.0 mph - N/A   Mostly Cloudy
5:58 PM 58.1 °F 39.4 °F 50% 29.92 in 10.0 mi WSW 12.7 mph - N/A   Mostly Cloudy
6:58 PM 56.1 °F 41.4 °F 58% 29.94 in 10.0 mi WSW 10.4 mph - N/A   Mostly Cloudy
7:58 PM 54.9 °F 43.0 °F 64% 29.95 in 10.0 mi WSW 8.1 mph - N/A   Overcast
8:58 PM 53.6 °F 44.6 °F 72% 29.96 in 10.0 mi WSW 9.2 mph - N/A   Scattered Clouds
9:28 PM 53.6 °F 44.6 °F 72% 29.96 in 10.0 mi SW 9.2 mph - N/A   Scattered Clouds
9:58 PM 51.8 °F 45.3 °F 79% 29.97 in 10.0 mi West 6.9 mph - N/A   Scattered Clouds
10:58 PM 51.3 °F 46.4 °F 83% 29.98 in 10.0 mi West 3.5 mph - N/A   Partly Cloudy
11:48 PM 50.0 °F 46.4 °F 87% 29.98 in 10.0 mi NNE 1.2 mph - N/A   Mostly Cloudy
11:58 PM 51.4 °F 46.0 °F 82% 29.97 in 10.0 mi Variable 1.2 mph - N/A   Mostly Cloudy